Los Angeles, CA

5:16 PM PDT on July 25, 2017 (GMT -0700)
Los Angeles International

Weather History for KLAX - July, 2013

Change the Weather History Date:

Wednesday, July 24, 2013

  Actual Average Record
Temperature  
Mean Temperature 66 °F 69 °F  
Max Temperature 70 °F 74 °F 87 °F (2006)
Min Temperature 62 °F 64 °F 57 °F (1947)
Degree Days  
Heating Degree Days 0 0  
Month to date heating degree days 0 0  
Since 1 June heating degree days 0 25  
Since 1 July heating degree days 0 0  
Cooling Degree Days 1 4  
Month to date cooling degree days 115 88  
Year to date cooling degree days 289 170  
Since 1 June cooling degree days 208 130  
Growing Degree Days 16 (Base 50)    
Moisture  
Dew Point 60 °F    
Average Humidity 82    
Maximum Humidity 93    
Minimum Humidity 70    
Precipitation  
Precipitation 0.00 in 0.00 in 0.01 in (1954)
Month to date precipitation 0.01 0.02  
Year to date precipitation 2.62 8.83  
Since 1 July precipitation 0.01  
Sea Level Pressure  
Sea Level Pressure 29.95 in    
Wind  
Wind Speed 9 mph (WSW)    
Max Wind Speed 18 mph    
Max Gust Speed 23 mph    
Visibility 9 miles    
Events Fog    
T = Trace of Precipitation, MM = Missing Value Source: NWS Daily Summary

Daily Weather History Graph

Daily Weather History Graph

Search for Another Location

Airport or City:

Trip Planner

Search our weather history database for the weather conditions in past years. The results will help you decide how hot, cold, wet, or windy it might be!

Date:

Astronomy

Jul. 24, 2013 Rise Set
Actual Time 5:59 AM PDT 8:00 PM PDT
Civil Twilight 5:31 AM PDT 8:27 PM PDT
Nautical Twilight 4:58 AM PDT 9:01 PM PDT
Astronomical Twilight 4:21 AM PDT 9:37 PM PDT
Moon 9:19 PM PDT (7/24) 8:16 AM PDT (7/24)
Length of Visible Light 14h 56m
Length of Day
14h 00m
Waning Gibbous, 94% of the Moon is Illuminated
Jul 24
Waning Gibbous
Jul 29
Last Quarter
Aug 6
New
Aug 14
First Quarter
Aug 20
Full

Hourly Weather History & Observations

Time (PDT) Temp. Dew Point Humidity Pressure Visibility Wind Dir Wind Speed Gust Speed Precip Events Conditions
12:53 AM 64.0 °F 60.1 °F 87% 29.98 in 10.0 mi West 10.4 mph - N/A   Overcast
1:53 AM 63.0 °F 60.1 °F 90% 29.98 in 10.0 mi WSW 8.1 mph - N/A   Overcast
2:53 AM 63.0 °F 60.1 °F 90% 29.97 in 10.0 mi West 8.1 mph - N/A   Overcast
3:53 AM 63.0 °F 60.1 °F 90% 29.97 in 10.0 mi WSW 4.6 mph - N/A   Overcast
4:53 AM 63.0 °F 60.1 °F 90% 29.96 in 9.0 mi WSW 4.6 mph - N/A   Overcast
5:53 AM 63.0 °F 60.1 °F 90% 29.97 in 3.0 mi West 4.6 mph - N/A Fog Patches of Fog
6:09 AM 62.6 °F 60.8 °F 94% 29.97 in 2.5 mi WSW 5.8 mph - N/A Fog Patches of Fog
6:42 AM 62.6 °F 60.8 °F 94% 29.97 in 3.0 mi West 4.6 mph - N/A Fog Patches of Fog
6:53 AM 63.0 °F 60.1 °F 90% 29.97 in 3.0 mi West 5.8 mph - N/A Fog Patches of Fog
7:53 AM 64.0 °F 60.1 °F 87% 29.97 in 6.0 mi Calm Calm - N/A Fog Patches of Fog
8:53 AM 64.0 °F 61.0 °F 90% 29.98 in 7.0 mi West 8.1 mph - N/A Fog Patches of Fog
9:53 AM 66.0 °F 61.0 °F 84% 29.98 in 7.0 mi SW 4.6 mph - N/A   Overcast
10:53 AM 70.0 °F 61.0 °F 73% 29.98 in 9.0 mi SW 6.9 mph - N/A   Mostly Cloudy
11:53 AM 69.1 °F 60.1 °F 73% 29.98 in 10.0 mi WSW 10.4 mph - N/A   Mostly Cloudy
12:53 PM 69.1 °F 59.0 °F 70% 29.97 in 10.0 mi WSW 15.0 mph - N/A   Mostly Cloudy
1:53 PM 69.1 °F 60.1 °F 73% 29.95 in 10.0 mi WSW 15.0 mph - N/A   Mostly Cloudy
2:53 PM 69.1 °F 60.1 °F 73% 29.94 in 10.0 mi West 15.0 mph - N/A   Overcast
3:53 PM 68.0 °F 60.1 °F 76% 29.93 in 10.0 mi WSW 12.7 mph - N/A   Mostly Cloudy
4:53 PM 66.9 °F 59.0 °F 76% 29.92 in 10.0 mi West 12.7 mph - N/A   Overcast
5:53 PM 66.0 °F 60.1 °F 81% 29.91 in 10.0 mi West 15.0 mph - N/A   Overcast
6:53 PM 64.9 °F 60.1 °F 84% 29.91 in 10.0 mi West 13.8 mph - N/A   Mostly Cloudy
7:30 PM 64.4 °F 59.0 °F 83% 29.92 in 10.0 mi WSW 13.8 mph - N/A   Scattered Clouds
7:53 PM 64.0 °F 60.1 °F 87% 29.92 in 10.0 mi West 11.5 mph - N/A   Scattered Clouds
8:29 PM 64.4 °F 59.0 °F 83% 29.93 in 10.0 mi WSW 9.2 mph - N/A   Mostly Cloudy
8:53 PM 64.0 °F 60.1 °F 87% 29.94 in 10.0 mi WSW 8.1 mph - N/A   Mostly Cloudy
9:53 PM 64.0 °F 60.1 °F 87% 29.95 in 10.0 mi WSW 5.8 mph - N/A   Overcast
10:53 PM 63.0 °F 59.0 °F 87% 29.95 in 10.0 mi West 8.1 mph - N/A   Overcast
11:53 PM 62.1 °F 59.0 °F 90% 29.95 in 10.0 mi WSW 6.9 mph - N/A   Overcast